#timestamp,LO_Frequency,Hit,StdDev 
1550343615.9,286047002.0,N
1550343635.7,286047003.2,N
1550343655.6,286047005.2,N
1550343675.4,286047002.9,N
1550343695.2,286047005.1,N
1550343715.1,286047003.4,N
1550343716.0,286047003.4,N
1550343735.8,286047003.8,N
1550343755.7,286047002.3,N
1550343775.5,286047002.0,N
1550343795.3,286047002.3,N
1550343815.2,286047002.7,N
1550343835.0,286047004.1,N
1550343835.9,286047004.1,N
1550343855.8,286047004.1,N
1550343875.6,286047003.5,N
1550343895.4,286047005.7,N
1550343915.3,286047003.4,N
1550343935.1,286047001.6,N
1550343955.9,286047002.7,N
1550343975.7,286047003.9,N
1550343995.5,286047006.3,Y
1550344015.4,286047002.0,P
1550344035.2,286047002.7,P
1550344055.1,286046998.5,P
1550344056.0,286046998.5,N
1550344075.8,286046999.4,N
1550344095.6,286047000.6,N
1550344115.5,286047000.4,N
1550344135.3,286047000.8,N
1550344155.1,286047002.7,N
1550344175.9,286047003.6,N
1550344195.7,286047005.8,Y
1550344215.6,286047001.3,P
1550344235.4,286047002.6,P
1550344255.2,286047004.3,P
1550344275.1,286047003.0,N
1550344276.0,286047003.0,N
1550344295.8,286047002.0,N
1550344315.7,286047002.0,N
1550344335.5,286047001.5,N
1550344355.3,286047001.7,N
1550344375.2,286047001.5,N
1550344395.0,286047002.3,N
1550344395.9,286047002.3,N
1550344415.8,286046999.7,N
1550344435.6,286046999.9,N
1550344455.4,286047000.8,N
1550344475.3,286047001.1,N
1550344495.1,286046998.8,N
1550344515.8,286046999.6,N
1550344535.7,286046998.0,N
1550344555.5,286046995.5,Y
1550344575.4,286046997.2,P
1550344595.2,286046998.6,N
1550344615.0,286047000.0,N
1550344615.9,286047000.0,N
1550344635.8,286046999.8,N
1550344655.6,286047002.4,N
1550344675.4,286046999.7,N
1550344695.3,286047000.4,N
1550344715.1,286047000.5,N
1550344735.9,286046998.6,N
1550344755.7,286047002.6,N
1550344775.5,286047001.5,N
1550344795.4,286047002.2,N
1550344815.2,286047002.3,N
1550344835.0,286046999.8,N
1550344836.0,286046999.8,N
1550344855.8,286047001.9,N
1550344875.6,286047004.4,N
1550344895.5,286047002.5,N
1550344915.3,286047001.2,N
1550344935.1,286047002.7,N
1550344955.4,286047000.3,N
1550344975.2,286047004.4,N
1550344995.0,286047002.8,N
1550344996.0,286047002.8,N
1550345015.8,286046997.1,N
1550345035.6,286046998.3,N
1550345055.5,286047001.1,N
1550345075.3,286046999.7,N
1550345095.2,286047000.1,N
1550345115.9,286046998.1,N
1550345135.7,286047001.0,N
1550345155.6,286046999.8,N
1550345175.4,286047000.7,N
1550345195.2,286047000.5,N
1550345215.1,286047002.4,N
1550345216.0,286047002.4,N
1550345235.8,286047002.1,N
1550345255.7,286047001.4,N
1550345275.5,286047001.7,N
1550345295.3,286047003.8,N
1550345315.2,286047002.4,N
1550345335.0,286047001.0,N
1550345335.9,286047001.0,N
1550345355.8,286046998.8,N
1550345375.6,286047000.6,N
1550345395.4,286047000.5,N
1550345415.3,286047000.7,N
1550345435.1,286047000.6,N
1550345455.8,286046998.9,N
1550345475.7,286046998.2,N
1550345495.5,286046998.6,N
1550345515.4,286046997.3,N
1550345535.2,286046995.6,N
1550345555.0,286046997.4,N
1550345555.9,286046997.4,N
1550345575.8,286046997.1,N
1550345595.6,286046999.0,N
1550345615.4,286046998.2,N
1550345635.3,286047002.6,N
1550345655.1,286047000.7,N
1550345675.9,286046999.4,N
1550345695.7,286046996.5,N
1550345715.5,286046996.5,N
1550345735.4,286046997.7,N
1550345755.2,286046998.0,N
1550345775.1,286046996.8,N
1550345776.0,286046996.8,N
1550345795.8,286046997.4,N
1550345815.6,286046998.5,N
1550345835.5,286046997.4,N
1550345855.3,286046997.5,N
1550345875.1,286046997.6,N
1550345895.9,286046997.8,N
1550345915.7,286046996.7,N
1550345935.6,286046999.2,N
1550345955.4,286046998.7,N
1550345975.2,286047000.7,N
1550345995.1,286047002.1,N
1550345996.0,286047002.1,N
1550346015.8,286047002.0,N
1550346035.7,286047000.3,N
1550346055.5,286046998.3,N
1550346075.3,286046998.7,N
1550346095.2,286046998.5,N
1550346115.0,286047002.7,N
1550346115.9,286047002.7,N
1550346135.8,286047002.1,N
1550346155.6,286047002.8,N
1550346175.4,286047002.6,N
1550346195.3,286046998.4,N
1550346215.1,286047001.2,N
1550346235.9,286046999.1,N
1550346255.7,286046997.0,N
1550346275.5,286046998.4,N
1550346295.4,286046999.6,N
1550346315.2,286046998.5,N
1550346335.0,286047000.9,N
1550346335.9,286047000.9,N
1550346355.8,286047001.2,N
1550346375.6,286047000.7,N
1550346395.5,286047000.9,N
1550346415.3,286047001.2,N
1550346435.1,286047000.0,N
1550346455.9,286046999.0,N
1550346475.7,286047000.0,N
1550346495.6,286047002.2,N
1550346515.4,286047004.4,N
1550346535.2,286047002.4,N
1550346555.1,286047002.8,N
1550346556.0,286047002.8,N
1550346575.8,286046999.2,N
1550346595.7,286046998.8,N
1550346615.5,286046997.2,N
1550346635.3,286046995.1,N
1550346655.2,286046999.1,N
1550346675.0,286046996.7,N
1550346675.9,286046996.7,N
1550346695.8,286046999.1,N
1550346715.6,286046998.6,N
1550346735.4,286046999.4,N
1550346755.3,286046999.2,N
1550346805.1,286046999.2,E
1550346815.1,286046996.6,N
1550346816.0,286046996.6,P
1550346835.8,286046999.2,P
1550346855.6,286046998.2,N
1550346875.5,286047000.1,N
1550346895.3,286047000.6,N
1550346915.1,286047002.7,N
1550346935.9,286047004.4,N
1550346955.7,286047004.3,N
1550346975.6,286047001.4,N
1550346995.4,286047002.3,N
1550347015.3,286047000.2,N
1550347035.1,286047002.0,N
1550347036.0,286047002.0,N
1550347055.8,286047004.0,N
1550347075.7,286047002.7,N
1550347095.5,286047001.0,N
1550347115.3,286047000.9,N
1550347135.2,286046999.9,N
1550347155.0,286047004.0,N
1550347155.9,286047004.0,N
1550347175.8,286047002.0,N
1550347195.6,286047002.1,N
